Regional Weather Roundup
Issued by NWS

Home | Current Version | Previous Version | Text Only | Print | Product List | Glossary Off
Versions: 1 2 3 4 5 6 7 8 9 10 11 12 13 14 15 16 17 18 19 20 21 22 23 24 25 26 27 28 29 30 31 32 33 34 35 36 37 38 39 40 41 42 43 44 45 46 47 48 49 50

000
ASUS43 KFSD 302102
RWRSD

WEATHER ROUNDUP FOR SOUTH DAKOTA
NATIONAL WEATHER SERVICE SIOUX FALLS SD
400 PM CDT THU JUL 30 2015

NOTE: "FAIR" INDICATES FEW OR NO CLOUDS BELOW 12,000 FEET WITH NO
SIGNIFICANT WEATHER AND/OR OBSTRUCTIONS TO VISIBILITY.


SDZ001>005-009-010-012>017-302200-
NORTHWEST AND NORTH CENTRAL SOUTH DAKOTA

CITY           SKY/WX    TMP DP  RH WIND       PRES   REMARKS
BUFFALO          N/A     89  38  16 W20G26    30.15F
FAITH            N/A     89  35  14 NW12      30.17F
MOBRIDGE       SUNNY     90  50  25 NW12      30.11S
$$

SDZ012>016-024>037-041>051-057-063-072>074-302200-
SOUTHWEST AND SOUTH CENTRAL SOUTH DAKOTA

CITY           SKY/WX    TMP DP  RH WIND       PRES   REMARKS
RAPID CTY ARPT SUNNY     87  46  24 NE6       30.24F
PIERRE         SUNNY     91  43  18 NW9       30.12F
CUSTER         MOSUNNY   80  36  20 VRB5      30.37F
ELLSWORTH AFB  SUNNY     87  41  20 CALM      30.23F
PHILIP         SUNNY     90  43  19 NW7       30.17F
PINE RIDGE     SUNNY     89  44  20 MISG      30.24F
WINNER         FAIR      93  45  19 W9        30.16F
$$

SDZ004>011-016>023-039-040-302200-
NORTHEAST SOUTH DAKOTA

CITY           SKY/WX    TMP DP  RH WIND       PRES   REMARKS
ABERDEEN       SUNNY     89  52  28 NW14G22   30.09S
WATERTOWN      SUNNY     84  54  35 W14       30.12F
BROOKINGS      SUNNY     82  55  39 W12G17    30.14F
SISSETON         N/A     85  58  39 NW16G26   30.05F
$$

SDZ017-020-022-023-036>040-048>070-302200-
SOUTHEAST SOUTH DAKOTA

CITY           SKY/WX    TMP DP  RH WIND       PRES   REMARKS
SIOUX FALLS    MOSUNNY   86  60  41 W7        30.13F
HURON          SUNNY     88  51  28 NW10      30.11F
CHAMBERLAIN    SUNNY     88  47  23 CALM      30.14F
MITCHELL       SUNNY     90  56  31 CALM      30.12F
YANKTON        SUNNY     88  63  42 W9        30.11F
$$

ABBREVIATIONS USED IN REMARKS
   TC - TEMPERATURE IN CELSIUS
  WCI - WIND CHILL INDEX
   HX - HEAT INDEX
  VSB - VISIBILITY




USA.gov is the U.S. government's official web portal to all federal, state and local government web resources and services.